Location: Kalberh�ni
(46.4610°N, 7.2453°E)
Time: 06:09:27
(UTC+00:00)

Cosmos 2333 Rocket - Pass Details

Date: 22 October 2021
Orbit: 837 x 865 km, 70.8° (Epoch: 05 December)

Event Time Altitude Azimuth Distance (km) Brightness Sun altitude
Rises 03:48:40 0° 337° (NNW) 3,442 5.2 -22.9°
Reaches altitude 10° 03:51:20 10° 346° (NNW) 2,505 4.6 -22.5°
Maximum altitude 03:56:38 36° 53° (NE) 1,340 3.7 -21.6°
Drops below altitude 10° 04:01:54 10° 119° (ESE) 2,502 5.4 -20.7°
Sets 04:04:34 0° 128° (SE) 3,437 6.1 -20.2°
